sat.trackr.live / text

‹ back to catalog

KUIPER-00097

NORAD 65136 · 2025-171E

PAYLOAD ACTIVE UNKNOWN

§ Identity

Operator
Country
US
Launch date
2025-08-11
Launch site
AFETR
Launch vehicle
Mass (kg)
RCS (m²)

External: N2YO · Heavens-Above · Gunter

§ Orbital elements

Epoch: 2026-09-21T13:53:27.908736Z

Period
97.30 min
Inclination
51.9030°
Eccentricity
0.0000504
Mean motion
14.79930463 rev/d
Perigee alt
629.2 km
Apogee alt
629.9 km
Semi-major
7,007.7 km
B*
3.2704e-4
RAAN
14.5148°
Arg perigee
91.3758°
Mean anomaly
268.7262°
Rev number
6,185

§ Raw data

KUIPER-000971 65136U 25171E   26264.57879524  .00002273  00000+0  32704-3 0  99962 65136  51.9030  14.5148 0000504  91.3758 268.7262 14.79930463 61855

JSON: /api/v1/satellites/65136 · /tle

For live sub-satellite position, see the globe view (requires WebGL).

§ Visibility from observer

Set your observer location to see the next 7 days of passes ≥ 10°. The values pass through the URL so the page stays shareable.

No JS? Fill the form by hand. The geolocation button needs JavaScript.